World > North America > United States > Pennsylvania

Connie Mack Stadium, Pennsylvania Regional Weather

Lat: 40.00N, Lon: 75.17W
Wx Zone: PAZ071
Feedback

Connie Mack Stadium, PA Regional Weather

Expires:201909180000;;945864
ASUS41 KOKX 172314
RWROKX

Regional Weather Roundup
National Weather Service New York NY
700 PM EDT TUE SEP 17 2019

Note: "FAIR" indicates few or no clouds below 12,000 feet with no
significant weather and/or obstructions to visibility.


PAZ047>061-062-071-180000-
Eastern Pennsylvania
  
CITY           SKY/WX    TMP DP  RH WIND       PRES   REMARKS
Philadelphia   FAIR      75  43  31 N13G21    30.10R                  
Allentown      FAIR      72  47  40 NE7       30.10R                  
Scranton       FAIR      71  49  45 N7        30.13S                  
$$


SKY/WX - Weather  TMP - Temperature  DP - Dew Point  RH - Relative Humidity
WIND - Wind Direction/Speed PRES - Barometric Pressure VSB - Visibility
WCI - Wind Chill Index E13G22 Wind - East Wind 13 mph/Gusts of 22 mph